135  
ASUS41 KALY 131510  
RWRALY  
 
NEW YORK STATE HOURLY WEATHER ROUNDUP  
NATIONAL WEATHER SERVICE ALBANY NY  
1100 AM EDT MON JUL 13 2020  
 
NOTE: "FAIR" INDICATES FEW OR NO CLOUDS BELOW 12,000 FEET WITH NO  
SIGNIFICANT WEATHER AND/OR NO S TO VISIBILITY
.  
 
NYZ032-033-038>043-046>054-057>066-NYZ062>081-082-084-131600-  
EAST  
 
 
CITY SKY/WX TMP DP RH WIND PRES REMARKS
 
ALBANY PTSUNNY 81 63 54 VRB7 29.80R  
GLENS FALLS PTSUNNY 77 62 59 CALM 29.78S  
POUGHKEEPSIE SUNNY 82 66 58 NW6 29.78R  
NEWBURGH MOSUNNY 77 70 78 W3 29.81R  
MONTGOMERY MOSUNNY 79 66 64 CALM 29.79S  
WHITE PLAINS SUNNY 80 63 55 NW7 29.79S  
ISLIP PTSUNNY 83 69 62 S9G16 29.78S  
NEW YORK CITY MOSUNNY 84 63 49 NW8 29.78S  
CENTRAL PARK MOSUNNY 80 65 59 W7 29.82R  

 
 
NYZ005>009-017-018-044>046-055-056-131600-  
CENTRAL  
 
 
CITY SKY/WX TMP DP RH WIND PRES REMARKS
 
FULTON PTSUNNY 75 64 68 W13 29.82S  
SYRACUSE PTSUNNY 77 62 59 W13 29.82F  
ROME HVY RAIN 68 62 81 NE3 29.83R  
ELMIRA PTSUNNY 75 59 57 SW9 29.85S  
BINGHAMTON MOSUNNY 70 62 76 VRB3 29.87F  
MONTICELLO MOSUNNY 75 62 64 NW9 29.87R  

 
 
NYZ026>034-041>043-087-131600-  
NORTH  
 
 
CITY SKY/WX TMP DP RH WIND PRES REMARKS
 
WATERTOWN MOSUNNY 77 65 66 N8 29.81S  
FORT DRUM NOT AVBL  
OGDENSBURG PTSUNNY 75 64 69 VRB5 29.79S  
MASSENA PTSUNNY 74 61 63 VRB3 29.81S  
SARANAC LAKE LGT RAIN 65 61 87 N3 29.83R  
PLATTSBURGH LGT RAIN 71 67 87 NE8 29.78R  

 
 
NYZ001>004-010>016-019>021-085-131600-  
WEST  
 
 
CITY SKY/WX TMP DP RH WIND PRES REMARKS
 
NIAGARA FALLS CLOUDY 70 62 76 NW10 29.87R  
BUFFALO PTSUNNY 73 59 61 W9 29.87S  
DUNKIRK PTSUNNY 72 61 68 W10 29.90S  
JAMESTOWN PTSUNNY 69 57 65 W13 29.94S  
WELLSVILLE CLOUDY 65 57 75 NW12 29.93S  
ROCHESTER PTSUNNY 71 61 70 W12 29.86S  
PENN YAN MOSUNNY 74 58 57 VRB7 29.87R  

 
 
KEY  
WCI = WIND CHILL INDEX  
VSB = VISIBILITY  
HX = HEAT INDEX  

 
 
 
CLICK HERE TO GO TO PREVIOUS BULLETINS.

The Nexlab NY Page
The Nexlab VT Page
The Nexlab MA Page
The Nexlab CT Page Main Text Page